TimeEDT,TemperatureF,Dew PointF,Humidity,Sea Level PressureIn,VisibilityMPH,Wind Direction,Wind SpeedMPH,Gust SpeedMPH,PrecipitationIn,Events,Conditions,WindDirDegrees,DateUTC
12:58 AM,71.8,67.5,86,30.14,10.0,East,15.0,-,N/A,,Scattered Clouds,100,2013-04-28 04:58:00
1:58 AM,70.7,67.1,88,30.12,10.0,East,11.5,-,N/A,,Clear,90,2013-04-28 05:58:00
2:58 AM,69.6,66.4,89,30.11,10.0,East,11.5,-,N/A,,Clear,100,2013-04-28 06:58:00
3:58 AM,69.6,66.2,89,30.09,10.0,ESE,12.7,-,N/A,,Clear,110,2013-04-28 07:58:00
4:58 AM,68.9,66.0,90,30.09,10.0,ESE,12.7,-,N/A,,Clear,110,2013-04-28 08:58:00
5:58 AM,68.7,65.7,90,30.08,10.0,ESE,10.4,-,N/A,,Clear,110,2013-04-28 09:58:00
6:58 AM,67.8,65.1,91,30.09,10.0,ESE,8.1,-,N/A,,Clear,110,2013-04-28 10:58:00
8:58 AM,74.1,65.5,74,30.12,10.0,ESE,10.4,-,N/A,,Clear,110,2013-04-28 12:58:00
9:58 AM,77.0,66.4,70,30.12,10.0,SE,13.8,-,N/A,,Clear,140,2013-04-28 13:58:00
10:58 AM,80.1,64.2,58,30.13,10.0,ESE,12.7,-,N/A,,Clear,110,2013-04-28 14:58:00
11:58 AM,81.9,64.2,55,30.11,10.0,ESE,11.5,17.3,N/A,,Clear,110,2013-04-28 15:58:00
12:12 PM,82.4,62.6,51,30.10,10.0,ESE,12.7,-,N/A,,Clear,120,2013-04-28 16:12:00
12:58 PM,84.0,63.1,49,30.09,10.0,East,11.5,18.4,N/A,,Clear,100,2013-04-28 16:58:00
1:43 PM,86.0,60.8,43,30.06,10.0,East,11.5,16.1,N/A,,Clear,100,2013-04-28 17:43:00
1:58 PM,85.5,61.7,45,30.06,10.0,SE,11.5,23.0,N/A,,Clear,130,2013-04-28 17:58:00
2:58 PM,87.3,61.3,42,30.04,10.0,SE,9.2,-,N/A,,Clear,140,2013-04-28 18:58:00
3:58 PM,86.9,61.9,43,30.02,10.0,SSE,9.2,-,N/A,,Partly Cloudy,150,2013-04-28 19:58:00
4:58 PM,87.3,63.3,45,30.00,10.0,SE,12.7,-,N/A,,Partly Cloudy,140,2013-04-28 20:58:00
5:58 PM,84.4,68.5,59,29.99,10.0,WSW,6.9,-,N/A,,Partly Cloudy,240,2013-04-28 21:58:00
6:58 PM,82.6,68.2,62,29.99,10.0,West,6.9,-,N/A,,Mostly Cloudy,270,2013-04-28 22:58:00
7:58 PM,79.5,66.9,65,29.98,10.0,NW,5.8,-,N/A,,Mostly Cloudy,310,2013-04-28 23:58:00
8:58 PM,76.6,68.5,76,30.01,10.0,NNW,5.8,-,N/A,,Mostly Cloudy,330,2013-04-29 00:58:00
9:58 PM,74.8,66.6,75,30.02,10.0,NE,3.5,-,N/A,,Mostly Cloudy,40,2013-04-29 01:58:00
10:58 PM,74.8,68.2,80,30.03,10.0,ENE,5.8,-,N/A,,Mostly Cloudy,60,2013-04-29 02:58:00
11:58 PM,75.7,63.5,66,30.04,10.0,ESE,12.7,-,N/A,,Mostly Cloudy,120,2013-04-29 03:58:00